N5WAY-13 Weather Reports


time (UTC)temp
C
wind
direction
speed
KPH
gust
KPH
rain 1hr
cm
rain 24hr
cm
rain mn
cm
humidity
%
barometer
mb
20260508065016 11 221 1.6 4.8 0.00 0.00 0.00 23 1016.4
20260508064017 11 357 0.0 3.2 0.00 0.00 0.00 23 1016.3
20260508063016 11 84 0.0 1.6 0.00 0.00 0.00 23 1016.3
20260508062036 12 21 1.6 3.2 0.00 0.00 0.00 23 1016.3
20260508061017 12 225 1.6 3.2 0.00 0.00 0.00 22 1016.2
20260508060016 12 247 0.0 3.2 0.00 0.00 0.00 21 1016.2
20260508055016 12 56 1.6 4.8 0.00 0.00 0.00 20 1016.2
20260508054037 13 29 1.6 3.2 0.00 0.00 0.00 20 1016.1
20260508053017 13 14 1.6 3.2 0.00 0.00 0.00 20 1016.1
20260508052017 13 225 1.6 6.4 0.00 0.00 0.00 19 1016.0
20260508051058 14 206 3.2 6.4 0.00 0.00 0.00 18 1016.0
20260508050017 15 198 6.4 12.9 0.00 0.00 0.00 18 1016.0
20260508045018 14 206 3.2 8.0 0.00 0.00 0.00 19 1015.9
20260508044055 14 115 1.6 3.2 0.00 0.00 0.00 19 1015.9
20260508043015 14 4 1.6 3.2 0.00 0.00 0.00 19 1015.9
20260508042015 14 7 0.0 3.2 0.00 0.00 0.00 18 1015.8
20260508041015 15 2 1.6 3.2 0.00 0.00 0.00 17 1015.9
20260508040015 15 343 1.6 4.8 0.00 0.00 0.00 16 1015.8
20260508035016 15 349 3.2 4.8 0.00 0.00 0.00 15 1015.8
20260508034016 16 352 3.2 4.8 0.00 0.00 0.00 15 1015.6
20260508033016 16 333 3.2 4.8 0.00 0.00 0.00 14 1015.5
20260508032016 17 351 3.2 4.8 0.00 0.00 0.00 14 1015.3
20260508031016 17 328 3.2 6.4 0.00 0.00 0.00 13 1015.2
20260508030016 18 339 1.6 3.2 0.00 0.00 0.00 13 1015.1
20260508025017 19 329 1.6 4.8 0.00 0.00 0.00 13 1014.9
20260508024016 20 334 1.6 4.8 0.00 0.00 0.00 12 1014.8
20260508023017 20 326 1.6 4.8 0.00 0.00 0.00 11 1014.7
20260508022017 20 327 1.6 6.4 0.00 0.00 0.00 11 1014.6
20260508021017 21 321 1.6 6.4 0.00 0.00 0.00 10 1014.4
20260508020017 21 324 3.2 6.4 0.00 0.00 0.00 10 1014.3
20260508015017 22 327 3.2 8.0 0.00 0.00 0.00 10 1014.2
20260508014017 22 328 3.2 8.0 0.00 0.00 0.00 10 1014.2
20260508013017 22 334 6.4 14.5 0.00 0.00 0.00 10 1014.0
20260508012017 23 321 3.2 9.7 0.00 0.00 0.00 10 1014.0
20260508011018 22 353 3.2 8.0 0.00 0.00 0.00 11 1014.0
20260508010018 23 213 1.6 4.8 0.00 0.00 0.00 14 1014.0
20260508005018 23 251 3.2 6.4 0.00 0.00 0.00 13 1014.0
20260508004018 23 257 3.2 8.0 0.00 0.00 0.00 13 1014.0
20260508003018 24 12 3.2 6.4 0.00 0.00 0.00 12 1013.9
20260508002018 25 80 1.6 4.8 0.00 0.00 0.00 12 1013.9
20260508001016 25 200 3.2 9.7 0.00 0.00 0.00 10 1013.8
20260508000016 24 262 1.6 6.4 0.00 0.00 0.00 13 1013.9
20260507235016 24 188 4.8 9.7 0.00 0.00 0.00 12 1013.9
20260507234016 24 168 4.8 14.5 0.00 0.00 0.00 12 1013.9
20260507233016 24 206 4.8 9.7 0.00 0.00 0.00 12 1014.1
20260507232016 24 207 3.2 11.3 0.00 0.00 0.00 13 1014.1
20260507231016 24 155 3.2 12.9 0.00 0.00 0.00 13 1014.2
20260507230057 24 188 4.8 17.7 0.00 0.00 0.00 12 1014.4
20260507225037 24 203 4.8 12.9 0.00 0.00 0.00 11 1014.4
20260507224017 24 226 3.2 6.4 0.00 0.00 0.00 11 1014.5
20260507223017 25 286 3.2 9.7 0.00 0.00 0.00 11 1014.6
20260507222017 24 214 4.8 14.5 0.00 0.00 0.00 13 1014.7
20260507221017 24 138 3.2 8.0 0.00 0.00 0.00 14 1014.9
20260507220017 23 171 3.2 12.9 0.00 0.00 0.00 14 1015.0
20260507215017 23 85 6.4 16.1 0.00 0.00 0.00 14 1015.1
20260507214017 23 231 3.2 11.3 0.00 0.00 0.00 11 1015.4
20260507213038 23 277 3.2 6.4 0.00 0.00 0.00 11 1015.6
20260507212018 22 259 4.8 11.3 0.00 0.00 0.00 13 1015.8
20260507211015 22 197 4.8 11.3 0.00 0.00 0.00 14 1016.1
20260507210015 22 164 4.8 12.9 0.00 0.00 0.00 16 1016.2
20260507205016 22 199 6.4 14.5 0.00 0.00 0.00 15 1016.4
20260507204015 22 188 4.8 16.1 0.00 0.00 0.00 15 1016.6
20260507203015 21 170 4.8 11.3 0.00 0.00 0.00 17 1016.8
20260507202056 21 159 4.8 11.3 0.00 0.00 0.00 18 1017.1
20260507201016 21 229 4.8 11.3 0.00 0.00 0.00 18 1017.2
20260507200016 21 222 3.2 9.7 0.00 0.00 0.00 19 1017.3
20260507195036 20 171 4.8 11.3 0.00 0.00 0.00 19 1017.5
20260507194016 20 118 3.2 8.0 0.00 0.00 0.00 20 1017.7
20260507193037 20 212 4.8 11.3 0.00 0.00 0.00 20 1017.8
20260507192017 19 189 6.4 11.3 0.00 0.00 0.00 21 1018.0
20260507191017 20 212 6.4 11.3 0.00 0.00 0.00 21 1018.2
20260507190037 18 140 3.2 9.7 0.00 0.00 0.00 23 1018.4
20260507185017 18 218 4.8 16.1 0.00 0.00 0.00 23 1018.6
20260507184017 18 44 4.8 11.3 0.00 0.00 0.00 23 1018.7
20260507183017 17 8 1.6 6.4 0.00 0.00 0.00 24 1019.0
20260507182017 17 25 4.8 9.7 0.00 0.00 0.00 24 1019.1
20260507181017 17 345 3.2 11.3 0.00 0.00 0.00 25 1019.3
20260507180017 16 96 1.6 6.4 0.00 0.00 0.00 26 1019.5
20260507175058 16 42 3.2 9.7 0.00 0.00 0.00 28 1019.7
20260507174018 15 191 4.8 9.7 0.00 0.00 0.00 28 1019.8
20260507173015 15 25 3.2 8.0 0.00 0.00 0.00 30 1020.0
20260507172015 15 200 3.2 9.7 0.00 0.00 0.00 30 1020.2
20260507171016 15 22 4.8 12.9 0.00 0.00 0.00 32 1020.4
20260507170016 14 14 3.2 9.7 0.00 0.00 0.00 32 1020.5
20260507165016 14 8 6.4 14.5 0.00 0.00 0.00 32 1020.5
20260507164016 13 44 3.2 8.0 0.00 0.00 0.00 37 1020.7
20260507163016 13 38 3.2 6.4 0.00 0.00 0.00 39 1020.8
20260507162016 12 31 4.8 12.9 0.00 0.00 0.00 40 1020.9
20260507161016 12 28 4.8 14.5 0.00 0.00 0.00 43 1021.1
20260507160017 11 32 4.8 11.3 0.00 0.00 0.00 43 1021.1
20260507155037 11 30 4.8 11.3 0.00 0.00 0.00 46 1021.2
20260507154017 11 38 3.2 8.0 0.00 0.00 0.00 48 1021.3
20260507153017 10 28 4.8 11.3 0.00 0.00 0.00 49 1021.4
20260507152017 10 43 4.8 9.7 0.00 0.00 0.00 51 1021.5
20260507151017 9 36 4.8 14.5 0.00 0.00 0.00 52 1021.5
20260507150017 8 33 8.0 16.1 0.00 0.00 0.00 54 1021.5
20260507145017 8 26 8.0 14.5 0.00 0.00 0.00 58 1021.6
20260507144037 8 23 9.7 16.1 0.00 0.00 0.00 60 1021.7
20260507143017 7 23 8.0 14.5 0.00 0.00 0.00 61 1021.8
20260507142018 7 16 9.7 19.3 0.00 0.00 0.00 63 1021.8
20260507141018 6 19 11.3 16.1 0.00 0.00 0.00 65 1021.9
20260507140015 6 26 8.0 14.5 0.00 0.00 0.00 67 1022.0
20260507135015 6 24 11.3 17.7 0.00 0.00 0.00 68 1022.1
20260507134015 6 18 11.3 17.7 0.00 0.00 0.00 65 1022.0
20260507133016 5 26 9.7 14.5 0.00 0.00 0.00 63 1021.8
20260507132016 5 26 8.0 14.5 0.00 0.00 0.00 61 1021.7
20260507131015 5 27 6.4 14.5 0.00 0.00 0.00 61 1021.8
20260507130016 4 21 4.8 11.3 0.00 0.00 0.00 67 1021.7
20260507125056 4 356 4.8 8.0 0.00 0.00 0.00 68 1021.6
20260507124016 3 358 3.2 4.8 0.00 0.00 0.00 71 1021.7
20260507123016 3 337 1.6 4.8 0.00 0.00 0.00 72 1021.5
20260507122016 3 354 3.2 4.8 0.00 0.00 0.00 71 1021.3
20260507121016 3 338 3.2 6.4 0.00 0.00 0.00 71 1021.2
20260507120037 3 350 3.2 9.7 0.00 0.00 0.00 69 1021.2
20260507115017 3 342 3.2 8.0 0.00 0.00 0.00 69 1021.2
20260507114017 3 350 3.2 8.0 0.00 0.00 0.00 68 1021.2
20260507113017 3 345 3.2 6.4 0.00 0.00 0.00 66 1021.2
20260507112017 3 4 4.8 8.0 0.00 0.00 0.00 64 1021.2
20260507111015 4 9 4.8 11.3 0.00 0.00 0.00 61 1021.2
20260507110015 4 352 4.8 11.3 0.00 0.00 0.00 60 1021.2
20260507105016 5 337 3.2 9.7 0.00 0.00 0.00 57 1021.1
20260507104016 5 339 4.8 8.0 0.00 0.00 0.00 56 1021.1
20260507103015 5 360 3.2 8.0 0.00 0.00 0.00 54 1021.1
20260507102015 5 2 3.2 8.0 0.00 0.00 0.00 52 1021.1
20260507101016 5 350 3.2 6.4 0.00 0.00 0.00 49 1021.0
20260507100056 6 18 3.2 9.7 0.00 0.00 0.00 46 1021.0
20260507095016 6 351 3.2 8.0 0.00 0.00 0.00 44 1020.9
20260507094056 5 3 1.6 4.8 0.00 0.00 0.00 40 1020.9
20260507093016 6 19 3.2 6.4 0.00 0.00 0.00 39 1020.7
20260507092016 6 358 3.2 8.0 0.00 0.00 0.00 38 1020.7
20260507091017 6 18 3.2 6.4 0.00 0.00 0.00 37 1020.8
20260507090017 6 2 3.2 6.4 0.00 0.00 0.00 36 1020.8
20260507085017 6 21 4.8 9.7 0.00 0.00 0.00 35 1020.7
20260507084017 6 346 3.2 4.8 0.00 0.00 0.00 38 1020.7
20260507083017 6 7 3.2 6.4 0.00 0.00 0.00 37 1020.6
20260507082017 6 16 3.2 8.0 0.00 0.00 0.00 37 1020.6
20260507081018 6 25 6.4 12.9 0.00 0.00 0.00 38 1020.6
20260507080018 6 50 3.2 9.7 0.00 0.00 0.00 40 1020.3
20260507075018 6 17 3.2 6.4 0.00 0.00 0.00 38 1020.2
20260507074015 6 15 3.2 4.8 0.00 0.00 0.00 41 1020.2
20260507073015 5 360 3.2 8.0 0.00 0.00 0.00 42 1020.1
20260507072016 5 9 3.2 4.8 0.00 0.00 0.00 43 1020.1
20260507071015 6 6 3.2 6.4 0.00 0.00 0.00 42 1020.1
20260507070015 6 5 3.2 6.4 0.00 0.00 0.00 40 1020.1